UKV21MR ENBR-EGKK

Flight info

Callsign UKV21MR
Flight time 2h 7m
Altitude 35000
Route TUXIL DCT ZOL DCT ATNAK/N0449F360 DCT TIPAN/N0450F380 DCT WECOW DCT BINBO DCT AKOKO N866 BUKUT P7 BARMI
Aircraft A320/M-SDE3FGHIRWY/LB1

Departure

Time 2026-05-05 18:54
Airport Bergen Airport, Flesland (ENBR)

Arrival

Time 2026-05-05 21:02
Airport London Gatwick Airport (EGKK)
Time Latitude Longitude Altitude Speed Heading
2026-05-05 18:28 60.28832 5.22617 175 ft 0 kts 33°
2026-05-05 18:46 60.28821 5.22602 175 ft 4 kts 38°
2026-05-05 18:47 60.28799 5.22569 175 ft 4 kts 40°
2026-05-05 18:47 60.28779 5.22533 175 ft 4 kts 47°
2026-05-05 18:47 60.28764 5.22491 175 ft 4 kts 72°
2026-05-05 18:47 60.28761 5.22458 174 ft 3 kts 159°
2026-05-05 18:50 60.28753 5.22463 174 ft 4 kts 160°
2026-05-05 18:50 60.28710 5.22468 172 ft 8 kts 192°
2026-05-05 18:51 60.28634 5.22390 167 ft 17 kts 186°
2026-05-05 18:51 60.28549 5.22407 165 ft 20 kts 173°
2026-05-05 18:51 60.28354 5.22463 160 ft 23 kts 169°
2026-05-05 18:51 60.28188 5.22520 155 ft 25 kts 171°
2026-05-05 18:52 60.28060 5.22477 152 ft 8 kts 249°
2026-05-05 18:52 60.28060 5.22473 152 ft 0 kts 250°
2026-05-05 18:52 60.28049 5.22407 153 ft 13 kts 253°
2026-05-05 18:53 60.28098 5.22224 153 ft 17 kts 339°
2026-05-05 18:53 60.28221 5.22188 154 ft 18 kts 352°
2026-05-05 18:53 60.28368 5.22144 156 ft 34 kts 352°
2026-05-05 18:53 60.28846 5.21973 164 ft 102 kts 350°
2026-05-05 18:54 60.29737 5.21664 150 ft 154 kts 356°
2026-05-05 18:54 60.30858 5.21391 508 ft 170 kts 349°
2026-05-05 18:54 60.32045 5.21003 1230 ft 174 kts 349°
2026-05-05 18:54 60.33256 5.20558 1831 ft 185 kts 348°
2026-05-05 18:55 60.34604 5.20047 2162 ft 207 kts 348°
2026-05-05 18:55 60.36112 5.19521 2557 ft 232 kts 349°
2026-05-05 18:55 60.37765 5.18960 3218 ft 247 kts 349°
2026-05-05 18:55 60.39475 5.18385 4173 ft 250 kts 349°
2026-05-05 18:56 60.41209 5.17801 5132 ft 254 kts 349°
2026-05-05 18:56 60.42958 5.17214 5789 ft 259 kts 349°
2026-05-05 18:56 60.44748 5.16610 6530 ft 261 kts 348°
2026-05-05 18:56 60.46481 5.15560 7453 ft 261 kts 329°
2026-05-05 18:57 60.47832 5.13205 8319 ft 262 kts 305°
2026-05-05 18:57 60.48575 5.09836 9211 ft 266 kts 281°
2026-05-05 18:57 60.48559 5.06070 10087 ft 271 kts 262°
2026-05-05 18:57 60.47997 5.02411 10902 ft 277 kts 244°
2026-05-05 18:58 60.46743 4.99405 11731 ft 287 kts 220°
2026-05-05 18:58 60.44860 4.97654 12130 ft 315 kts 193°
2026-05-05 18:58 60.42568 4.97650 12348 ft 343 kts 178°
2026-05-05 18:58 60.40132 4.98130 12804 ft 356 kts 176°
2026-05-05 18:59 60.37671 4.98714 13459 ft 363 kts 176°
2026-05-05 18:59 60.35148 4.99336 14113 ft 367 kts 176°
2026-05-05 18:59 60.32592 4.99945 14788 ft 371 kts 177°
2026-05-05 18:59 60.30008 5.00525 15465 ft 374 kts 178°
2026-05-05 19:00 60.27409 5.01133 16142 ft 378 kts 175°
2026-05-05 19:00 60.24837 5.02131 16801 ft 382 kts 174°
2026-05-05 19:00 60.22206 5.03163 17448 ft 385 kts 174°
2026-05-05 19:00 60.19563 5.04196 18091 ft 389 kts 175°
2026-05-05 19:01 60.16896 5.05288 18660 ft 394 kts 172°
2026-05-05 19:01 60.14261 5.07113 19168 ft 404 kts 162°
2026-05-05 19:01 60.11661 5.09375 19662 ft 409 kts 163°
2026-05-05 19:01 60.09071 5.11615 20138 ft 412 kts 163°
2026-05-05 19:02 60.06417 5.13896 20565 ft 417 kts 165°
2026-05-05 19:02 60.03730 5.16188 21016 ft 421 kts 165°
2026-05-05 19:02 60.01017 5.18498 21511 ft 425 kts 165°
2026-05-05 19:02 59.98284 5.20830 21983 ft 428 kts 166°
2026-05-05 19:03 59.95528 5.23181 22465 ft 431 kts 166°
2026-05-05 19:03 59.92787 5.25513 22936 ft 434 kts 166°
2026-05-05 19:03 59.89996 5.27881 23420 ft 437 kts 166°
2026-05-05 19:03 59.87189 5.30261 23843 ft 440 kts 166°
2026-05-05 19:04 59.84359 5.32654 24256 ft 442 kts 166°
2026-05-05 19:04 59.81509 5.34924 24653 ft 438 kts 172°
2026-05-05 19:04 59.78581 5.36410 25052 ft 429 kts 180°
2026-05-05 19:04 59.75682 5.37049 25364 ft 423 kts 185°
2026-05-05 19:05 59.72742 5.37512 25777 ft 424 kts 185°
2026-05-05 19:05 59.69790 5.37980 26155 ft 426 kts 185°
2026-05-05 19:05 59.66826 5.38461 26535 ft 428 kts 185°
2026-05-05 19:05 59.63849 5.38968 26929 ft 430 kts 184°
2026-05-05 19:06 59.60858 5.39612 27295 ft 434 kts 182°
2026-05-05 19:06 59.57844 5.40382 27628 ft 437 kts 182°
2026-05-05 19:06 59.54858 5.41201 27994 ft 440 kts 181°
2026-05-05 19:06 59.51811 5.42047 28355 ft 441 kts 181°
2026-05-05 19:07 59.48764 5.42875 28619 ft 443 kts 182°
2026-05-05 19:07 59.45703 5.43676 28987 ft 443 kts 182°
2026-05-05 19:07 59.42635 5.44454 29316 ft 444 kts 182°
2026-05-05 19:07 59.39560 5.45231 29636 ft 447 kts 181°
2026-05-05 19:08 59.36466 5.46164 29929 ft 451 kts 180°
2026-05-05 19:08 59.33395 5.47247 30204 ft 455 kts 178°
2026-05-05 19:08 59.30277 5.48445 30479 ft 456 kts 178°
2026-05-05 19:08 59.27163 5.49681 30848 ft 455 kts 178°
2026-05-05 19:09 59.24061 5.50898 31202 ft 454 kts 178°
2026-05-05 19:09 59.20951 5.52081 31537 ft 453 kts 178°
2026-05-05 19:09 59.17852 5.53226 31828 ft 452 kts 178°
2026-05-05 19:09 59.14769 5.54334 32174 ft 451 kts 178°
2026-05-05 19:10 59.11683 5.55428 32522 ft 450 kts 178°
2026-05-05 19:10 59.08596 5.56515 32874 ft 450 kts 178°
2026-05-05 19:10 59.05556 5.57589 33198 ft 449 kts 178°
2026-05-05 19:10 59.02482 5.58682 33539 ft 449 kts 178°
2026-05-05 19:11 58.99400 5.59782 33873 ft 448 kts 178°
2026-05-05 19:11 58.96326 5.60877 34186 ft 448 kts 178°
2026-05-05 19:11 58.93291 5.61953 34452 ft 448 kts 178°
2026-05-05 19:11 58.90217 5.62997 34665 ft 445 kts 180°
2026-05-05 19:12 58.87155 5.63352 34925 ft 436 kts 189°
2026-05-05 19:12 58.84164 5.62809 35172 ft 427 kts 197°
2026-05-05 19:12 58.81242 5.61757 35396 ft 427 kts 198°
2026-05-05 19:12 58.78321 5.60705 35633 ft 427 kts 198°
2026-05-05 19:13 58.75424 5.59670 35834 ft 428 kts 197°
2026-05-05 19:13 58.72492 5.58626 35986 ft 429 kts 197°
2026-05-05 19:13 58.66595 5.56527 36024 ft 430 kts 197°
2026-05-05 19:14 58.60734 5.54458 36024 ft 430 kts 197°
2026-05-05 19:14 58.54843 5.52377 36024 ft 430 kts 197°
2026-05-05 19:15 58.48949 5.50294 36024 ft 430 kts 197°
2026-05-05 19:15 58.43089 5.48228 36024 ft 430 kts 197°
2026-05-05 19:16 58.37206 5.46157 36027 ft 430 kts 197°
2026-05-05 19:16 58.31315 5.44104 36007 ft 429 kts 197°
2026-05-05 19:17 58.25462 5.42088 36020 ft 429 kts 197°
2026-05-05 19:17 58.19585 5.40055 36028 ft 428 kts 197°
2026-05-05 19:18 58.13709 5.38009 36031 ft 428 kts 197°
2026-05-05 19:18 58.07871 5.35993 35989 ft 428 kts 197°
2026-05-05 19:19 58.02001 5.33977 36005 ft 428 kts 197°
2026-05-05 19:19 57.96132 5.31976 36015 ft 428 kts 197°
2026-05-05 19:20 57.90296 5.29996 36021 ft 428 kts 197°
2026-05-05 19:20 57.84428 5.27997 36024 ft 428 kts 197°
2026-05-05 19:21 57.78594 5.26016 35995 ft 428 kts 196°
2026-05-05 19:21 57.72727 5.24031 36011 ft 428 kts 196°
2026-05-05 19:22 57.66857 5.22060 36024 ft 428 kts 196°
2026-05-05 19:22 57.61023 5.20111 36028 ft 428 kts 196°
2026-05-05 19:23 57.55157 5.18146 36027 ft 428 kts 196°
2026-05-05 19:23 57.49288 5.16179 36001 ft 427 kts 196°
2026-05-05 19:24 57.43465 5.14229 36018 ft 427 kts 196°
2026-05-05 19:24 57.37610 5.12291 36022 ft 427 kts 196°
2026-05-05 19:25 57.31731 5.10352 36025 ft 427 kts 196°
2026-05-05 19:25 57.25903 5.08435 35999 ft 427 kts 195°
2026-05-05 19:26 57.20043 5.06509 36014 ft 427 kts 195°
2026-05-05 19:26 57.14170 5.04604 36016 ft 427 kts 195°
2026-05-05 19:27 57.08348 5.02704 36026 ft 427 kts 195°
2026-05-05 19:27 57.02480 5.00800 36028 ft 427 kts 195°
2026-05-05 19:28 56.96603 4.98971 36006 ft 428 kts 194°
2026-05-05 19:28 56.90686 4.97419 36018 ft 429 kts 193°
2026-05-05 19:29 56.84814 4.95947 36026 ft 428 kts 193°
2026-05-05 19:29 56.78903 4.94409 36029 ft 428 kts 194°
2026-05-05 19:30 56.73004 4.92855 36004 ft 428 kts 193°
2026-05-05 19:30 56.67141 4.91321 36019 ft 428 kts 193°
2026-05-05 19:31 56.61240 4.89776 36023 ft 427 kts 193°
2026-05-05 19:31 56.55351 4.88226 36026 ft 427 kts 193°
2026-05-05 19:32 56.49460 4.86694 36028 ft 427 kts 193°
2026-05-05 19:32 56.43588 4.85186 36003 ft 427 kts 193°
2026-05-05 19:33 56.37692 4.83666 36008 ft 427 kts 193°
2026-05-05 19:33 56.31837 4.82152 36015 ft 427 kts 193°
2026-05-05 19:34 56.25938 4.80641 36019 ft 427 kts 193°
2026-05-05 19:35 56.17089 4.78372 35996 ft 427 kts 192°
2026-05-05 19:35 56.11228 4.76889 36004 ft 428 kts 192°
2026-05-05 19:36 56.05323 4.75397 36010 ft 428 kts 192°
2026-05-05 19:36 55.99417 4.73901 36008 ft 428 kts 192°
2026-05-05 19:37 55.93552 4.72411 36011 ft 428 kts 193°
2026-05-05 19:37 55.87645 4.70922 36008 ft 428 kts 192°
2026-05-05 19:38 55.81736 4.69452 36007 ft 428 kts 192°
2026-05-05 19:38 55.75865 4.67979 36001 ft 428 kts 192°
2026-05-05 19:39 55.69954 4.66516 36001 ft 428 kts 192°
2026-05-05 19:39 55.65037 4.65307 35977 ft 428 kts 192°
2026-05-05 19:40 55.58164 4.63599 35980 ft 428 kts 192°
2026-05-05 19:40 55.53253 4.62387 35983 ft 428 kts 192°
2026-05-05 19:41 55.46377 4.60693 35980 ft 428 kts 192°
2026-05-05 19:41 55.41456 4.59483 35963 ft 428 kts 192°
2026-05-05 19:42 55.35539 4.58031 35962 ft 428 kts 191°
2026-05-05 19:42 55.29621 4.56592 35968 ft 428 kts 191°
2026-05-05 19:43 55.23738 4.55164 35970 ft 429 kts 191°
2026-05-05 19:43 55.17817 4.53723 35949 ft 429 kts 191°
2026-05-05 19:44 55.11934 4.52302 35959 ft 429 kts 191°
2026-05-05 19:44 55.06018 4.50879 35963 ft 429 kts 191°
2026-05-05 19:45 55.00098 4.49459 35966 ft 429 kts 191°
2026-05-05 19:45 54.94183 4.48035 35981 ft 429 kts 191°
2026-05-05 19:46 54.88292 4.46623 35957 ft 429 kts 191°
2026-05-05 19:46 54.82362 4.45211 35964 ft 429 kts 191°
2026-05-05 19:47 54.76443 4.43807 35974 ft 429 kts 191°
2026-05-05 19:47 54.70553 4.42410 35973 ft 429 kts 191°
2026-05-05 19:48 54.64634 4.41017 35970 ft 428 kts 191°
2026-05-05 19:48 54.58899 4.38807 35980 ft 422 kts 204°
2026-05-05 19:49 54.53673 4.34257 35980 ft 420 kts 210°
2026-05-05 19:49 54.48503 4.29561 35979 ft 420 kts 210°
2026-05-05 19:50 54.43331 4.24881 35973 ft 420 kts 209°
2026-05-05 19:50 54.38174 4.20240 35966 ft 420 kts 209°
2026-05-05 19:51 54.32995 4.15574 35975 ft 419 kts 210°
2026-05-05 19:51 54.27833 4.10928 35975 ft 419 kts 210°
2026-05-05 19:52 54.22662 4.06289 35979 ft 419 kts 209°
2026-05-05 19:52 54.17524 4.01687 35958 ft 419 kts 209°
2026-05-05 19:53 54.12357 3.97093 35971 ft 418 kts 209°
2026-05-05 19:53 54.07192 3.92507 35975 ft 418 kts 209°
2026-05-05 19:54 54.02065 3.87972 35978 ft 417 kts 209°
2026-05-05 19:54 53.96907 3.83427 35979 ft 417 kts 209°
2026-05-05 19:55 53.91747 3.78871 35967 ft 416 kts 208°
2026-05-05 19:55 53.86605 3.74355 35973 ft 416 kts 208°
2026-05-05 19:56 53.81499 3.69889 35982 ft 415 kts 208°
2026-05-05 19:56 53.76362 3.65402 35979 ft 415 kts 208°
2026-05-05 19:57 53.71208 3.60909 35975 ft 416 kts 208°
2026-05-05 19:57 53.66079 3.56456 35955 ft 417 kts 208°
2026-05-05 19:58 53.60917 3.51991 35958 ft 417 kts 208°
2026-05-05 19:58 53.55751 3.47537 35963 ft 416 kts 208°
2026-05-05 19:59 53.50593 3.43090 35965 ft 416 kts 208°
2026-05-05 19:59 53.45461 3.38675 35967 ft 416 kts 208°
2026-05-05 20:00 53.40297 3.34255 35968 ft 416 kts 208°
2026-05-05 20:00 53.35168 3.29860 35964 ft 416 kts 208°
2026-05-05 20:01 53.30005 3.25464 35952 ft 416 kts 208°
2026-05-05 20:01 53.24830 3.21091 35951 ft 416 kts 207°
2026-05-05 20:02 53.19663 3.16724 35942 ft 416 kts 207°
2026-05-05 20:02 53.14527 3.12386 35943 ft 415 kts 207°
2026-05-05 20:03 53.09367 3.08025 35952 ft 415 kts 207°
2026-05-05 20:03 53.04202 3.03680 35970 ft 415 kts 207°
2026-05-05 20:04 52.99055 2.99364 35951 ft 417 kts 207°
2026-05-05 20:04 52.93832 2.95010 35940 ft 425 kts 207°
2026-05-05 20:04 52.91172 2.92793 35530 ft 427 kts 207°
2026-05-05 20:05 52.88513 2.90578 34858 ft 425 kts 206°
2026-05-05 20:05 52.85875 2.88384 34199 ft 423 kts 206°
2026-05-05 20:05 52.83272 2.86222 33469 ft 422 kts 206°
2026-05-05 20:05 52.80646 2.84037 32609 ft 422 kts 207°
2026-05-05 20:06 52.78013 2.81846 31681 ft 424 kts 207°
2026-05-05 20:06 52.75364 2.79652 30731 ft 427 kts 207°
2026-05-05 20:06 52.72690 2.77435 29688 ft 430 kts 207°
2026-05-05 20:06 52.70000 2.75208 28596 ft 433 kts 207°
2026-05-05 20:07 52.67330 2.73007 27282 ft 425 kts 207°
2026-05-05 20:07 52.64720 2.70862 25964 ft 424 kts 206°
2026-05-05 20:07 52.62072 2.68690 25150 ft 424 kts 206°
2026-05-05 20:07 52.59437 2.66531 24498 ft 420 kts 206°
2026-05-05 20:08 52.56882 2.64440 24725 ft 402 kts 206°
2026-05-05 20:08 52.54384 2.62395 25064 ft 401 kts 206°
2026-05-05 20:08 52.51916 2.60374 25397 ft 401 kts 206°
2026-05-05 20:08 52.49409 2.58330 25742 ft 402 kts 206°
2026-05-05 20:09 52.46891 2.56279 25937 ft 404 kts 206°
2026-05-05 20:09 52.44371 2.54223 25974 ft 404 kts 206°
2026-05-05 20:09 52.41842 2.52165 25960 ft 404 kts 206°
2026-05-05 20:09 52.39318 2.50120 25958 ft 404 kts 206°
2026-05-05 20:10 52.36826 2.48102 25961 ft 405 kts 206°
2026-05-05 20:10 52.34296 2.46049 25965 ft 405 kts 206°
2026-05-05 20:10 52.31763 2.43988 25965 ft 405 kts 206°
2026-05-05 20:10 52.29234 2.41934 25965 ft 405 kts 206°
2026-05-05 20:11 52.26731 2.39911 25961 ft 405 kts 206°
2026-05-05 20:11 52.24200 2.37871 25967 ft 405 kts 206°
2026-05-05 20:11 52.21672 2.35835 25963 ft 405 kts 206°
2026-05-05 20:11 52.19129 2.33797 25966 ft 406 kts 206°
2026-05-05 20:12 52.16590 2.31766 25973 ft 405 kts 206°
2026-05-05 20:12 52.14088 2.29763 25378 ft 407 kts 206°
2026-05-05 20:12 52.11511 2.27702 24280 ft 417 kts 206°
2026-05-05 20:12 52.08939 2.25647 24040 ft 406 kts 206°
2026-05-05 20:13 52.06422 2.23637 23926 ft 400 kts 207°
2026-05-05 20:13 52.03913 2.21635 23805 ft 400 kts 206°
2026-05-05 20:13 52.01413 2.19638 23688 ft 401 kts 207°
2026-05-05 20:13 51.98902 2.17632 23570 ft 402 kts 207°
2026-05-05 20:14 51.96419 2.15655 23441 ft 402 kts 207°
2026-05-05 20:14 51.93901 2.13659 23301 ft 402 kts 206°
2026-05-05 20:14 51.91385 2.11670 23167 ft 401 kts 207°
2026-05-05 20:14 51.88881 2.09694 23026 ft 400 kts 206°
2026-05-05 20:15 51.86371 2.07711 22883 ft 400 kts 206°
2026-05-05 20:15 51.83904 2.05762 22768 ft 399 kts 206°
2026-05-05 20:15 51.81406 2.03794 22378 ft 398 kts 206°
2026-05-05 20:15 51.78881 2.01806 21283 ft 407 kts 206°
2026-05-05 20:16 51.76340 1.99807 20976 ft 398 kts 206°
2026-05-05 20:16 51.73864 1.97859 20980 ft 394 kts 206°
2026-05-05 20:16 51.71401 1.95925 20975 ft 393 kts 206°
2026-05-05 20:16 51.68938 1.94001 20969 ft 393 kts 206°
2026-05-05 20:17 51.66532 1.91908 20973 ft 393 kts 213°
2026-05-05 20:17 51.64382 1.89201 20975 ft 393 kts 223°
2026-05-05 20:17 51.62549 1.86012 20922 ft 394 kts 229°
2026-05-05 20:17 51.60751 1.82703 20552 ft 391 kts 229°
2026-05-05 20:18 51.58949 1.79407 20018 ft 389 kts 228°
2026-05-05 20:18 51.57162 1.76156 19490 ft 387 kts 228°
2026-05-05 20:18 51.55380 1.72926 18979 ft 385 kts 228°
2026-05-05 20:18 51.53601 1.69710 18454 ft 384 kts 228°
2026-05-05 20:19 51.51831 1.66510 17891 ft 383 kts 228°
2026-05-05 20:19 51.50090 1.63303 17364 ft 379 kts 232°
2026-05-05 20:19 51.48685 1.59811 16857 ft 376 kts 243°
2026-05-05 20:19 51.47685 1.55953 16346 ft 373 kts 250°
2026-05-05 20:20 51.46797 1.52050 15845 ft 371 kts 250°
2026-05-05 20:20 51.45906 1.48175 15340 ft 369 kts 250°
2026-05-05 20:20 51.45017 1.44321 14837 ft 367 kts 250°
2026-05-05 20:20 51.44032 1.40547 14335 ft 365 kts 242°
2026-05-05 20:21 51.42637 1.37216 13850 ft 363 kts 230°
2026-05-05 20:21 51.40846 1.34425 13596 ft 356 kts 218°
2026-05-05 20:21 51.38866 1.32059 13338 ft 354 kts 217°
2026-05-05 20:21 51.36888 1.29719 13078 ft 353 kts 217°
2026-05-05 20:22 51.34918 1.27386 12818 ft 351 kts 217°
2026-05-05 20:22 51.32948 1.25054 12552 ft 350 kts 217°
2026-05-05 20:22 51.30987 1.22735 12290 ft 352 kts 216°
2026-05-05 20:22 51.29039 1.20431 12036 ft 352 kts 217°
2026-05-05 20:23 51.27070 1.18108 11777 ft 351 kts 217°
2026-05-05 20:23 51.25107 1.15797 11520 ft 348 kts 217°
2026-05-05 20:23 51.23155 1.13500 11257 ft 348 kts 217°
2026-05-05 20:23 51.21199 1.11201 11001 ft 349 kts 217°
2026-05-05 20:24 51.19273 1.08946 10744 ft 347 kts 217°
2026-05-05 20:24 51.17331 1.06677 10496 ft 341 kts 217°
2026-05-05 20:24 51.15446 1.04478 10369 ft 327 kts 217°
2026-05-05 20:24 51.13642 1.02375 10243 ft 315 kts 217°
2026-05-05 20:25 51.11899 1.00346 10098 ft 305 kts 218°
2026-05-05 20:25 51.10208 0.98379 9968 ft 299 kts 217°
2026-05-05 20:25 51.08534 0.96429 9797 ft 298 kts 217°
2026-05-05 20:25 51.06873 0.94444 9574 ft 298 kts 223°
2026-05-05 20:26 51.05510 0.92050 9406 ft 293 kts 237°
2026-05-05 20:26 51.04548 0.89219 9222 ft 290 kts 247°
2026-05-05 20:26 51.03695 0.86309 9034 ft 290 kts 246°
2026-05-05 20:26 51.02837 0.83413 8854 ft 289 kts 246°
2026-05-05 20:27 51.01977 0.80528 8674 ft 288 kts 246°
2026-05-05 20:27 51.01114 0.77657 8485 ft 287 kts 246°
2026-05-05 20:27 51.00543 0.75756 8363 ft 287 kts 246°
2026-05-05 20:27 50.99405 0.71969 8127 ft 286 kts 246°
2026-05-05 20:28 50.98549 0.69126 8011 ft 285 kts 246°
2026-05-05 20:28 50.97693 0.66278 7756 ft 285 kts 246°
2026-05-05 20:28 50.96839 0.63447 7612 ft 284 kts 246°
2026-05-05 20:28 50.96274 0.61576 7488 ft 284 kts 247°
2026-05-05 20:29 50.95424 0.58751 7301 ft 283 kts 247°
2026-05-05 20:29 50.94578 0.55927 7120 ft 282 kts 249°
2026-05-05 20:29 50.94123 0.52951 6993 ft 276 kts 271°
2026-05-05 20:29 50.94397 0.50029 6877 ft 271 kts 290°
2026-05-05 20:30 50.94945 0.47174 6758 ft 271 kts 290°
2026-05-05 20:30 50.95497 0.44312 6626 ft 270 kts 289°
2026-05-05 20:30 50.96044 0.41469 6540 ft 269 kts 289°
2026-05-05 20:30 50.96592 0.38626 6545 ft 269 kts 289°
2026-05-05 20:31 50.97133 0.35807 6548 ft 269 kts 289°
2026-05-05 20:31 50.97675 0.32957 6549 ft 269 kts 289°
2026-05-05 20:31 50.98214 0.30113 6546 ft 269 kts 289°
2026-05-05 20:31 50.98756 0.27266 6547 ft 269 kts 289°
2026-05-05 20:32 50.99298 0.24420 6541 ft 269 kts 289°
2026-05-05 20:32 50.99839 0.21565 6127 ft 270 kts 289°
2026-05-05 20:32 51.00392 0.18659 5372 ft 280 kts 289°
2026-05-05 20:32 51.00964 0.15652 4768 ft 285 kts 290°
2026-05-05 20:33 51.01526 0.12676 4247 ft 285 kts 288°
2026-05-05 20:33 51.01812 0.09567 3891 ft 281 kts 275°
2026-05-05 20:33 51.01920 0.06563 3816 ft 264 kts 276°
2026-05-05 20:33 51.02038 0.03740 3743 ft 248 kts 277°
2026-05-05 20:34 51.02154 0.01088 3676 ft 233 kts 277°
2026-05-05 20:34 51.02267 -0.01418 3595 ft 223 kts 276°
2026-05-05 20:34 51.02377 -0.03829 3544 ft 220 kts 276°
2026-05-05 20:34 51.02486 -0.06257 3491 ft 220 kts 276°
2026-05-05 20:35 51.02593 -0.08683 3447 ft 220 kts 276°
2026-05-05 20:35 51.02699 -0.11110 3393 ft 220 kts 276°
2026-05-05 20:35 51.02804 -0.13538 3344 ft 220 kts 276°
2026-05-05 20:35 51.02906 -0.15958 3293 ft 220 kts 275°
2026-05-05 20:36 51.03008 -0.18383 3243 ft 219 kts 276°
2026-05-05 20:36 51.03110 -0.20800 3158 ft 219 kts 276°
2026-05-05 20:36 51.03210 -0.23217 3060 ft 218 kts 275°
2026-05-05 20:36 51.03309 -0.25625 3028 ft 218 kts 275°
2026-05-05 20:37 51.03408 -0.28032 3036 ft 219 kts 275°
2026-05-05 20:37 51.03504 -0.30413 3035 ft 219 kts 275°
2026-05-05 20:37 51.03602 -0.32828 3034 ft 219 kts 275°
2026-05-05 20:37 51.03699 -0.35238 3024 ft 219 kts 275°
2026-05-05 20:38 51.03795 -0.37654 3026 ft 219 kts 275°
2026-05-05 20:38 51.03890 -0.40070 3032 ft 219 kts 275°
2026-05-05 20:38 51.03986 -0.42488 3028 ft 219 kts 275°
2026-05-05 20:38 51.04082 -0.44909 3031 ft 219 kts 275°
2026-05-05 20:39 51.04178 -0.47296 3029 ft 219 kts 277°
2026-05-05 20:39 51.04604 -0.49566 3016 ft 210 kts 303°
2026-05-05 20:39 51.05569 -0.51167 3024 ft 197 kts 330°
2026-05-05 20:39 51.06829 -0.51873 3026 ft 190 kts 356°
2026-05-05 20:40 51.08128 -0.51640 3015 ft 188 kts 21°
2026-05-05 20:40 51.09230 -0.50544 3024 ft 187 kts 46°
2026-05-05 20:40 51.09953 -0.48854 3032 ft 188 kts 60°
2026-05-05 20:40 51.10589 -0.47024 3028 ft 188 kts 60°
2026-05-05 20:41 51.11107 -0.45181 3027 ft 177 kts 72°
2026-05-05 20:41 51.11407 -0.43344 3025 ft 168 kts 75°
2026-05-05 20:41 51.11670 -0.41554 2866 ft 164 kts 76°
2026-05-05 20:41 51.11921 -0.39793 2666 ft 163 kts 76°
2026-05-05 20:42 51.12168 -0.38040 2463 ft 162 kts 76°
2026-05-05 20:42 51.12413 -0.36297 2234 ft 161 kts 77°
2026-05-05 20:42 51.12651 -0.34591 2038 ft 159 kts 77°
2026-05-05 20:42 51.12889 -0.32889 1811 ft 155 kts 78°
2026-05-05 20:43 51.13121 -0.31226 1607 ft 152 kts 78°
2026-05-05 20:43 51.13345 -0.29620 1415 ft 143 kts 78°
2026-05-05 20:43 51.13555 -0.28109 1202 ft 136 kts 78°
2026-05-05 20:43 51.13758 -0.26652 1012 ft 134 kts 78°
2026-05-05 20:44 51.13975 -0.25046 1554 ft 152 kts 78°
2026-05-05 20:44 51.14204 -0.23344 2303 ft 168 kts 78°
2026-05-05 20:44 51.14308 -0.21399 3021 ft 186 kts 99°
2026-05-05 20:44 51.13652 -0.19515 3709 ft 214 kts 136°
2026-05-05 20:45 51.10704 -0.18206 4904 ft 233 kts 177°
2026-05-05 20:45 51.09088 -0.18145 4989 ft 232 kts 179°
2026-05-05 20:45 51.07472 -0.18137 4969 ft 232 kts 179°
2026-05-05 20:46 51.05859 -0.18142 4828 ft 231 kts 179°
2026-05-05 20:46 51.04252 -0.18152 4707 ft 231 kts 179°
2026-05-05 20:46 51.02650 -0.18164 4495 ft 229 kts 179°
2026-05-05 20:46 51.01053 -0.18172 4283 ft 228 kts 179°
2026-05-05 20:47 50.99491 -0.18181 4098 ft 226 kts 179°
2026-05-05 20:47 50.97914 -0.18188 3980 ft 226 kts 179°
2026-05-05 20:47 50.96340 -0.18197 3981 ft 226 kts 179°
2026-05-05 20:47 50.94775 -0.18046 3980 ft 224 kts 162°
2026-05-05 20:48 50.93482 -0.16780 3983 ft 219 kts 127°
2026-05-05 20:48 50.92887 -0.14629 3984 ft 213 kts 91°
2026-05-05 20:48 50.93114 -0.12346 3983 ft 210 kts 69°
2026-05-05 20:48 50.93615 -0.10162 3984 ft 211 kts 66°
2026-05-05 20:49 50.94157 -0.08029 3984 ft 210 kts 62°
2026-05-05 20:49 50.95117 -0.06357 3983 ft 207 kts 27°
2026-05-05 20:49 50.96509 -0.05927 3984 ft 208 kts 352°
2026-05-05 20:49 50.97806 -0.06915 4001 ft 212 kts 316°
2026-05-05 20:50 50.98511 -0.08969 4006 ft 217 kts 284°
2026-05-05 20:50 50.98724 -0.11357 4005 ft 220 kts 277°
2026-05-05 20:50 50.98852 -0.13778 4004 ft 220 kts 276°
2026-05-05 20:50 50.98963 -0.16169 4001 ft 220 kts 276°
2026-05-05 20:51 50.99073 -0.18590 4000 ft 220 kts 276°
2026-05-05 20:51 50.99183 -0.21016 4003 ft 220 kts 276°
2026-05-05 20:51 50.99290 -0.23445 4002 ft 220 kts 276°
2026-05-05 20:51 50.99397 -0.25874 3985 ft 220 kts 276°
2026-05-05 20:52 50.99504 -0.28303 3990 ft 220 kts 276°
2026-05-05 20:52 50.99612 -0.30731 3987 ft 220 kts 276°
2026-05-05 20:52 50.99718 -0.33124 3990 ft 220 kts 276°
2026-05-05 20:52 50.99825 -0.35545 3988 ft 220 kts 276°
2026-05-05 20:53 50.99934 -0.38003 3957 ft 221 kts 276°
2026-05-05 20:53 51.00042 -0.40401 3777 ft 220 kts 276°
2026-05-05 20:53 51.00152 -0.42827 3567 ft 218 kts 276°
2026-05-05 20:53 51.00265 -0.45230 3368 ft 218 kts 276°
2026-05-05 20:54 51.00395 -0.47620 3164 ft 217 kts 282°
2026-05-05 20:54 51.01049 -0.49715 3020 ft 219 kts 317°
2026-05-05 20:54 51.02273 -0.51162 2991 ft 224 kts 329°
2026-05-05 20:54 51.03619 -0.52450 2998 ft 226 kts 331°
2026-05-05 20:55 51.04979 -0.53718 3000 ft 226 kts 331°
2026-05-05 20:55 51.06339 -0.54987 2996 ft 226 kts 331°
2026-05-05 20:55 51.07653 -0.56215 2996 ft 211 kts 331°
2026-05-05 20:55 51.08882 -0.57369 2994 ft 198 kts 331°
2026-05-05 20:56 51.10078 -0.58254 2983 ft 188 kts 353°
2026-05-05 20:56 51.11321 -0.57902 2990 ft 182 kts 33°
2026-05-05 20:56 51.12093 -0.56355 2996 ft 182 kts 73°
2026-05-05 20:56 51.12123 -0.54342 3011 ft 184 kts 97°
2026-05-05 20:57 51.11883 -0.52322 3005 ft 185 kts 100°
2026-05-05 20:57 51.11601 -0.50321 3000 ft 185 kts 101°
2026-05-05 20:57 51.11313 -0.48316 3000 ft 185 kts 101°
2026-05-05 20:57 51.11073 -0.46303 3000 ft 184 kts 88°
2026-05-05 20:58 51.11276 -0.44330 3004 ft 183 kts 76°
2026-05-05 20:58 51.11557 -0.42374 2926 ft 178 kts 76°
2026-05-05 20:58 51.11829 -0.40458 2747 ft 176 kts 76°
2026-05-05 20:58 51.12092 -0.38587 2542 ft 169 kts 77°
2026-05-05 20:59 51.12343 -0.36795 2295 ft 162 kts 77°
2026-05-05 20:59 51.12588 -0.35047 2080 ft 159 kts 77°
2026-05-05 20:59 51.12827 -0.33336 1876 ft 157 kts 77°
2026-05-05 20:59 51.13060 -0.31663 1669 ft 156 kts 78°
2026-05-05 21:00 51.13294 -0.29981 1443 ft 155 kts 78°
2026-05-05 21:00 51.13534 -0.28259 1250 ft 166 kts 78°
2026-05-05 21:00 51.13786 -0.26457 980 ft 160 kts 77°
2026-05-05 21:00 51.14020 -0.24814 774 ft 143 kts 77°
2026-05-05 21:01 51.14233 -0.23336 583 ft 135 kts 77°
2026-05-05 21:01 51.14407 -0.21890 404 ft 129 kts 77°
2026-05-05 21:01 51.14613 -0.20503 238 ft 129 kts 76°
2026-05-05 21:01 51.14785 -0.19285 217 ft 88 kts 77°
2026-05-05 21:02 51.14883 -0.18585 206 ft 47 kts 78°
2026-05-05 21:02 51.14945 -0.18121 211 ft 39 kts 76°
2026-05-05 21:02 51.15052 -0.17801 211 ft 26 kts 47°
2026-05-05 21:02 51.15120 -0.17763 206 ft 0 kts 354°
2026-05-05 21:03 51.15132 -0.17765 206 ft 6 kts 355°
2026-05-05 21:03 51.15210 -0.17776 209 ft 16 kts 355°
2026-05-05 21:03 51.15277 -0.17646 209 ft 18 kts 78°
2026-05-05 21:04 51.15302 -0.17444 208 ft 20 kts 79°
2026-05-05 21:04 51.15390 -0.17387 216 ft 17 kts 345°
2026-05-05 21:04 51.15505 -0.17429 216 ft 18 kts 348°
2026-05-05 21:04 51.15590 -0.17379 205 ft 14 kts 71°
2026-05-05 21:05 51.15623 -0.17215 212 ft 17 kts 73°
2026-05-05 21:05 51.15669 -0.17049 208 ft 16 kts 15°
2026-05-05 21:05 51.15784 -0.17075 205 ft 17 kts 350°
2026-05-05 21:05 51.15898 -0.17063 206 ft 17 kts 28°
2026-05-05 21:06 51.15967 -0.17032 209 ft 11 kts 323°
2026-05-05 21:06 51.16000 -0.17074 211 ft 0 kts 319°